This demonstration page uses our WeatherBlox Daily Observations layout. Learn more.

Left ArrowRight Arrow

Hourly Observations for January 6, 2022

Temp ( °F °C ) Dew Point ( °F °C ) Humidity (%) Winds ( mph kmh ) Pressure ( in mb ) Visibility ( mi km ) Precip ( " mm )
12:53 am 00:53 Clear 39 3.9 14 -10 36 36 WSW 6 9 29.85 1011 10 16 0.00 0.00
1:53 am 01:53 Clear 36 2.2 15 -9.4 42 42 NW 7 11 29.86 1011 10 16 0.00 0.00
2:53 am 02:53 Clear 32 0 17 -8.3 54 54 NW 8 13 29.85 1011 10 16 0.00 0.00
3:53 am 03:53 Clear 33 0.6 17 -8.3 52 52 NNE 6 9 29.87 1012 10 16 0.00 0.00
4:53 am 04:53 Clear 30 -1.1 17 -8.3 58 58 N 8 13 29.88 1012 10 16 0.00 0.00
5:53 am 05:53 Clear 30 -1.1 18 -7.8 61 61 N 6 9 29.89 1012 10 16 0.00 0.00
6:53 am 06:53 Clear 28 -2.2 18 -7.8 66 66 N 6 9 29.93 1014 10 16 0.00 0.00
7:53 am 07:53 Clear 34 1.1 19 -7.2 54 54 NNE 10 17 30.01 1016 10 16 0.00 0.00
8:53 am 08:53 Sunny 37 2.8 21 -6.1 52 52 NE 21 33 30.06 1018 10 16 0.00 0.00
9:53 am 09:53 Sunny 33 0.6 17 -8.3 52 52 NE 20 31 30.11 1020 10 16 0.00 0.00
10:53 am 10:53 Sunny 36 2.2 15 -9.4 42 42 ENE 15 24 30.14 1021 10 16 0.00 0.00
11:53 am 11:53 Sunny 39 3.9 16 -8.9 39 39 NE 15 24 30.16 1021 10 16 0.00 0.00
12:53 pm 12:53 Sunny 40 4.4 14 -10 35 35 NE 14 22 30.14 1021 10 16 0.00 0.00
1:53 pm 13:53 Sunny 40 4.4 13 -10.6 33 33 NE 12 19 30.14 1021 10 16 0.00 0.00
2:53 pm 14:53 Sunny 41 5 12 -11.1 30 30 NNE 8 13 30.13 1020 10 16 0.00 0.00
3:53 pm 15:53 Sunny 42 5.6 12 -11.1 29 29 ENE 8 13 30.11 1020 10 16 0.00 0.00
4:53 pm 16:53 Sunny 42 5.6 12 -11.1 29 29 ENE 7 11 30.11 1020 10 16 0.00 0.00
5:53 pm 17:53 Sunny 40 4.4 11 -11.7 30 30 E 7 11 30.12 1020 10 16 0.00 0.00
6:53 pm 18:53 Clear 36 2.2 11 -11.7 35 35 E 6 9 30.14 1021 10 16 0.00 0.00
7:53 pm 19:53 Clear 34 1.1 11 -11.7 38 38 E 7 11 30.13 1020 10 16 0.00 0.00
8:53 pm 20:53 Clear 31 -0.6 10 -12.2 42 42 E 6 9 30.13 1020 10 16 0.00 0.00
9:53 pm 21:53 Clear 29 -1.7 10 -12.2 45 45 ESE 6 9 30.14 1021 10 16 0.00 0.00
10:53 pm 22:53 Clear 29 -1.7 10 -12.2 45 45 ESE 9 15 30.13 1020 10 16 0.00 0.00
11:53 pm 23:53 Clear 27 -2.8 10 -12.2 49 49 ESE 8 13 30.12 1020 10 16 0.00 0.00

Powered by AerisWeather